STT9099 VTSP-OEMA

Flight info

Callsign STT9099
Flight time N/A
Altitude 28000
Route UBNEN1B UBNEN L645 SAMAK DCT LAGOG N571 VUSET T500 MCT T506 TULBU M628 MIGMA M550 MEVDO Y511 ELONU
Aircraft A346/H-SDE2E3FGHIJ3J4J5M1RWXY/LB1D1

Departure

Time 2026-05-08 10:31
Airport Phuket International Airport (VTSP)

Arrival

Time N/A
Airport Prince Mohammad Bin Abdulaziz Airport (OEMA)
Time Latitude Longitude Altitude Speed Heading
2026-05-08 10:01 8.11091 98.30814 15 ft 0 kts 215°
2026-05-08 10:05 8.11008 98.30775 15 ft 0 kts 174°
2026-05-08 10:21 8.11023 98.30773 15 ft 4 kts 168°
2026-05-08 10:21 8.11047 98.30765 17 ft 4 kts 149°
2026-05-08 10:22 8.11066 98.30750 16 ft 4 kts 137°
2026-05-08 10:22 8.11083 98.30735 14 ft 1 kts 143°
2026-05-08 10:25 8.11082 98.30736 14 ft 0 kts 143°
2026-05-08 10:25 8.11076 98.30741 16 ft 2 kts 141°
2026-05-08 10:25 8.11073 98.30751 14 ft 3 kts 88°
2026-05-08 10:25 8.11075 98.30787 15 ft 7 kts 86°
2026-05-08 10:26 8.11082 98.30856 16 ft 14 kts 82°
2026-05-08 10:26 8.11109 98.30982 21 ft 23 kts 71°
2026-05-08 10:26 8.11137 98.31183 24 ft 32 kts 84°
2026-05-08 10:26 8.11163 98.31450 31 ft 39 kts 84°
2026-05-08 10:27 8.11193 98.31763 39 ft 44 kts 84°
2026-05-08 10:27 8.11226 98.32109 46 ft 50 kts 84°
2026-05-08 10:27 8.11263 98.32490 48 ft 55 kts 84°
2026-05-08 10:27 8.11303 98.32887 62 ft 54 kts 84°
2026-05-08 10:28 8.11429 98.33055 62 ft 24 kts 308°
2026-05-08 10:28 8.11441 98.32971 66 ft 1 kts 269°
2026-05-08 10:28 8.11439 98.32919 65 ft 25 kts 263°
2026-05-08 10:28 8.11211 98.32717 95 ft 0 kts 304°
2026-05-08 10:29 8.11612 98.33150 455 ft 46 kts 156°
2026-05-08 10:29 8.11449 98.33052 318 ft 70 kts 254°
2026-05-08 10:29 8.11438 98.33020 65 ft 0 kts 262°
2026-05-08 10:29 8.11444 98.33016 68 ft 2 kts 262°
2026-05-08 10:30 8.11440 98.32986 67 ft 6 kts 262°
2026-05-08 10:30 8.11431 98.32920 57 ft 11 kts 262°
2026-05-08 10:30 8.11407 98.32608 58 ft 77 kts 265°
2026-05-08 10:30 8.11329 98.31742 42 ft 140 kts 265°
2026-05-08 10:31 8.11163 98.30482 13 ft 194 kts 262°
2026-05-08 10:31 8.11023 98.29213 575 ft 187 kts 266°
2026-05-08 10:31 8.10973 98.27928 1356 ft 176 kts 270°
2026-05-08 10:31 8.10962 98.26677 1873 ft 184 kts 269°
2026-05-08 10:32 8.10939 98.25911 2155 ft 188 kts 268°
2026-05-08 10:32 8.11008 98.30775 2155 ft 2 kts 174°
2026-05-08 10:38 8.11011 98.30775 15 ft 3 kts 174°
2026-05-08 10:38 8.11036 98.30770 18 ft 4 kts 159°
2026-05-08 10:38 8.11058 98.30758 16 ft 4 kts 141°
2026-05-08 10:38 8.11075 98.30742 18 ft 4 kts 138°
2026-05-08 10:39 8.11083 98.30735 15 ft 0 kts 143°
2026-05-08 10:41 8.11081 98.30737 14 ft 1 kts 142°
2026-05-08 10:42 8.11078 98.30740 14 ft 1 kts 122°
2026-05-08 10:42 8.11076 98.30764 14 ft 4 kts 94°
2026-05-08 10:42 8.11227 98.32058 44 ft 387 kts 87°
2026-05-08 10:42 8.11448 98.33009 67 ft 9 kts 263°
2026-05-08 10:43 8.11446 98.33008 68 ft 1 kts 264°
2026-05-08 10:43 8.11444 98.32986 67 ft 5 kts 264°
2026-05-08 10:43 8.11439 98.32932 65 ft 11 kts 264°
2026-05-08 10:43 8.11410 98.32636 57 ft 76 kts 264°
2026-05-08 10:44 8.11338 98.31885 42 ft 136 kts 265°
2026-05-08 10:44 8.11229 98.30679 13 ft 188 kts 265°
2026-05-08 10:44 8.11102 98.29270 441 ft 196 kts 265°
2026-05-08 10:44 8.10996 98.27910 1158 ft 193 kts 266°
2026-05-08 10:45 8.10875 98.26574 1910 ft 191 kts 263°
2026-05-08 10:45 8.10732 98.25198 2391 ft 203 kts 265°
2026-05-08 10:45 8.10634 98.23733 2694 ft 216 kts 267°
2026-05-08 10:45 8.10549 98.22174 2970 ft 230 kts 267°
2026-05-08 10:46 8.10465 98.20511 3224 ft 245 kts 267°
2026-05-08 10:46 8.10380 98.18757 3492 ft 262 kts 267°
2026-05-08 10:46 8.10287 98.16868 3822 ft 277 kts 267°
2026-05-08 10:46 8.10190 98.14897 4378 ft 282 kts 267°
2026-05-08 10:47 8.10092 98.12916 5028 ft 283 kts 267°
2026-05-08 10:47 8.09994 98.10926 5670 ft 285 kts 266°
2026-05-08 10:47 8.09916 98.09158 6221 ft 287 kts 267°
2026-05-08 10:47 8.09841 98.07137 6817 ft 290 kts 268°
2026-05-08 10:48 8.09769 98.05107 7425 ft 292 kts 268°
2026-05-08 10:48 8.09696 98.03046 8046 ft 294 kts 268°
2026-05-08 10:48 8.09622 98.00967 8670 ft 296 kts 268°
2026-05-08 10:48 8.09547 97.98891 9271 ft 299 kts 268°
2026-05-08 10:49 8.09472 97.96815 9848 ft 301 kts 268°
2026-05-08 10:49 8.09396 97.94679 10254 ft 309 kts 268°
2026-05-08 10:49 8.09315 97.92458 10502 ft 324 kts 267°
2026-05-08 10:49 8.09231 97.90147 10734 ft 337 kts 267°
2026-05-08 10:50 8.09142 97.87732 10974 ft 351 kts 267°
2026-05-08 10:50 8.09050 97.85215 11202 ft 364 kts 267°
2026-05-08 10:50 8.08953 97.82609 11437 ft 378 kts 267°
2026-05-08 10:50 8.08567 97.74161 12669 ft 397 kts 266°
2026-05-08 10:51 8.08000 97.63224 14505 ft 409 kts 266°
2026-05-08 10:51 8.07406 97.51673 16315 ft 419 kts 266°
2026-05-08 10:51 8.06789 97.40163 17926 ft 430 kts 266°
2026-05-08 10:51 8.06110 97.27394 19423 ft 440 kts 266°
2026-05-08 10:52 8.05551 97.14348 20809 ft 451 kts 267°
2026-05-08 10:52 8.05167 97.00603 22164 ft 460 kts 267°
2026-05-08 10:52 8.04740 96.86277 23425 ft 470 kts 267°
2026-05-08 10:52 8.04301 96.71767 24492 ft 477 kts 267°
2026-05-08 10:53 8.03841 96.56780 25491 ft 486 kts 267°
2026-05-08 10:53 8.03414 96.42966 26383 ft 492 kts 267°
2026-05-08 10:53 8.02932 96.27592 27315 ft 500 kts 267°
2026-05-08 10:53 8.02454 96.12531 27836 ft 504 kts 267°
2026-05-08 10:54 8.01974 95.97536 27838 ft 503 kts 267°
2026-05-08 10:54 8.01500 95.82893 27838 ft 503 kts 267°
2026-05-08 10:54 8.01032 95.68547 27839 ft 503 kts 267°
2026-05-08 10:54 8.00561 95.54195 27836 ft 499 kts 267°
2026-05-08 10:55 8.00191 95.40640 27830 ft 499 kts 268°
2026-05-08 10:55 7.99880 95.26890 27829 ft 500 kts 268°
2026-05-08 10:55 7.99557 95.13170 27829 ft 501 kts 268°
2026-05-08 10:55 7.99222 94.99154 27829 ft 497 kts 268°
2026-05-08 10:56 7.98888 94.85264 27824 ft 485 kts 267°
2026-05-08 10:56 7.98543 94.71320 27833 ft 482 kts 267°
2026-05-08 10:56 7.98199 94.57479 27834 ft 493 kts 267°
2026-05-08 10:56 7.98045 94.43063 27830 ft 499 kts 273°
2026-05-08 10:57 8.01001 94.28922 27833 ft 500 kts 284°
2026-05-08 10:57 8.04694 94.14838 27835 ft 500 kts 284°
2026-05-08 10:57 8.11759 93.87355 27831 ft 499 kts 284°
2026-05-08 10:58 8.15416 93.73067 27828 ft 500 kts 284°
2026-05-08 10:58 8.18920 93.59385 27832 ft 500 kts 284°
2026-05-08 10:58 8.22492 93.45405 27829 ft 500 kts 284°
2026-05-08 10:58 8.26176 93.30963 27829 ft 500 kts 284°
2026-05-08 10:59 8.29905 93.16317 27827 ft 500 kts 284°
2026-05-08 10:59 8.33582 93.01854 27824 ft 500 kts 284°
2026-05-08 10:59 8.37213 92.87553 27822 ft 500 kts 284°
2026-05-08 10:59 8.40911 92.72962 27821 ft 500 kts 284°
2026-05-08 11:00 8.44589 92.58427 27841 ft 500 kts 284°
2026-05-08 11:00 8.48180 92.44214 27821 ft 501 kts 284°
2026-05-08 11:00 8.51577 92.30751 27824 ft 501 kts 284°
2026-05-08 11:00 8.55209 92.16339 27824 ft 501 kts 284°
2026-05-08 11:01 8.58797 92.02374 27820 ft 501 kts 287°
2026-05-08 11:01 8.64288 91.89178 27820 ft 501 kts 296°
2026-05-08 11:01 8.70468 91.76180 27819 ft 500 kts 295°
2026-05-08 11:01 8.76727 91.62896 27818 ft 499 kts 295°
2026-05-08 11:02 8.82896 91.49776 27818 ft 499 kts 295°
2026-05-08 11:02 8.94807 91.24404 27813 ft 499 kts 295°
2026-05-08 11:02 9.00830 91.11552 27813 ft 497 kts 295°
2026-05-08 11:03 9.06850 90.98695 27815 ft 496 kts 295°
2026-05-08 11:03 9.12655 90.86282 27814 ft 497 kts 295°
2026-05-08 11:03 9.18774 90.73185 27816 ft 497 kts 295°
2026-05-08 11:03 9.24816 90.60237 27811 ft 498 kts 295°
2026-05-08 11:04 9.29907 90.49316 27814 ft 499 kts 295°
2026-05-08 11:04 9.35017 90.38344 27814 ft 498 kts 294°
2026-05-08 11:04 9.37419 90.33186 27813 ft 500 kts 294°
2026-05-08 11:04 9.38905 90.29992 27812 ft 500 kts 294°
2026-05-08 11:05 9.40396 90.26790 27934 ft 504 kts 295°
2026-05-08 11:05 9.41890 90.23582 28263 ft 503 kts 295°
2026-05-08 11:05 9.43387 90.20371 28498 ft 504 kts 294°
2026-05-08 11:05 9.44887 90.17148 28666 ft 507 kts 295°
2026-05-08 11:06 9.46393 90.13910 28867 ft 508 kts 295°
2026-05-08 11:06 9.47902 90.10658 29027 ft 511 kts 295°
2026-05-08 11:06 9.49420 90.07389 29217 ft 513 kts 295°
2026-05-08 11:06 9.50940 90.04115 29502 ft 512 kts 295°
2026-05-08 11:07 9.52455 90.00850 29826 ft 511 kts 295°
2026-05-08 11:07 9.53965 89.97598 30119 ft 509 kts 295°
2026-05-08 11:07 9.55456 89.94388 30333 ft 510 kts 295°
2026-05-08 11:07 9.56967 89.91127 30532 ft 510 kts 295°
2026-05-08 11:08 9.58473 89.87879 30764 ft 510 kts 295°
2026-05-08 11:08 9.59983 89.84619 30998 ft 509 kts 295°
2026-05-08 11:08 9.61489 89.81368 31253 ft 509 kts 295°
2026-05-08 11:08 9.62992 89.78120 31511 ft 508 kts 295°
2026-05-08 11:09 9.64493 89.74878 31763 ft 507 kts 295°
2026-05-08 11:09 9.65994 89.71635 32016 ft 506 kts 295°
2026-05-08 11:09 9.67491 89.68400 32269 ft 506 kts 295°
2026-05-08 11:09 9.68985 89.65172 32506 ft 505 kts 295°
2026-05-08 11:10 9.70478 89.61944 32728 ft 505 kts 295°
2026-05-08 11:10 9.71968 89.58720 32923 ft 504 kts 295°
2026-05-08 11:10 9.73460 89.55494 33101 ft 504 kts 295°
2026-05-08 11:10 9.74946 89.52277 33259 ft 503 kts 295°
2026-05-08 11:11 9.76429 89.49065 33399 ft 503 kts 295°
2026-05-08 11:11 9.77893 89.45896 33513 ft 502 kts 295°
2026-05-08 11:11 9.79394 89.42645 33597 ft 502 kts 295°
2026-05-08 11:12 9.82341 89.36260 33674 ft 502 kts 295°
2026-05-08 11:12 9.85297 89.29846 33731 ft 501 kts 295°
2026-05-08 11:13 9.88248 89.23444 33777 ft 500 kts 295°
2026-05-08 11:13 9.91192 89.17047 33864 ft 501 kts 295°
2026-05-08 11:14 9.94152 89.10623 34100 ft 502 kts 295°
2026-05-08 11:14 9.95630 89.07414 34302 ft 501 kts 295°
2026-05-08 11:14 9.97104 89.04211 34555 ft 500 kts 295°
2026-05-08 11:14 9.98576 89.01011 34785 ft 499 kts 295°
2026-05-08 11:15 10.00018 88.97875 35022 ft 497 kts 295°
2026-05-08 11:15 10.01481 88.94693 35247 ft 497 kts 295°
2026-05-08 11:15 10.02944 88.91508 35431 ft 497 kts 295°
2026-05-08 11:15 10.04401 88.88336 35635 ft 496 kts 295°
2026-05-08 11:16 10.05861 88.85157 35791 ft 496 kts 295°
2026-05-08 11:16 10.08774 88.78813 35806 ft 495 kts 295°
2026-05-08 11:17 10.11660 88.72520 35811 ft 494 kts 295°
2026-05-08 11:17 10.14565 88.66183 35813 ft 495 kts 295°
2026-05-08 11:18 10.17472 88.59841 35810 ft 495 kts 295°
2026-05-08 11:18 10.19886 88.54571 35810 ft 495 kts 295°
2026-05-08 11:19 10.22961 88.48315 35811 ft 493 kts 297°
2026-05-08 11:19 10.26113 88.42087 35807 ft 496 kts 297°
2026-05-08 11:20 10.29264 88.35856 35809 ft 496 kts 297°
2026-05-08 11:20 10.32430 88.29587 35806 ft 497 kts 297°
2026-05-08 11:21 10.35580 88.23343 35811 ft 496 kts 297°
2026-05-08 11:21 10.38702 88.17151 35806 ft 494 kts 297°
2026-05-08 11:22 10.41844 88.10915 35803 ft 495 kts 297°
2026-05-08 11:22 10.44990 88.04666 35806 ft 497 kts 297°
2026-05-08 11:23 10.48137 87.98413 35807 ft 497 kts 297°
2026-05-08 11:23 10.51287 87.92150 35806 ft 496 kts 297°
2026-05-08 11:24 10.54410 87.85937 35803 ft 497 kts 297°
2026-05-08 11:24 10.57562 87.79663 35805 ft 497 kts 297°
2026-05-08 11:25 10.60723 87.73366 35805 ft 503 kts 297°
2026-05-08 11:25 10.63935 87.66958 35803 ft 505 kts 297°
2026-05-08 11:26 10.67127 87.60593 35806 ft 505 kts 297°
2026-05-08 11:26 10.70323 87.54220 35802 ft 505 kts 297°
2026-05-08 11:27 10.73500 87.47879 35804 ft 506 kts 297°
2026-05-08 11:27 10.76688 87.41511 35804 ft 505 kts 297°
2026-05-08 11:28 10.79878 87.35135 35799 ft 505 kts 297°
2026-05-08 11:28 10.83072 87.28755 35797 ft 506 kts 297°
2026-05-08 11:29 10.86269 87.22353 35800 ft 508 kts 297°
2026-05-08 11:29 10.89440 87.15996 35799 ft 507 kts 297°
2026-05-08 11:30 10.92626 87.09610 35797 ft 506 kts 297°
2026-05-08 11:30 10.95813 87.03215 35801 ft 507 kts 297°
2026-05-08 11:31 10.99010 86.96801 35801 ft 508 kts 297°
2026-05-08 11:31 11.02201 86.90399 35797 ft 507 kts 296°
2026-05-08 11:32 11.05386 86.83998 35798 ft 506 kts 296°
2026-05-08 11:32 11.08571 86.77591 35793 ft 507 kts 296°
2026-05-08 11:33 11.11762 86.71171 35794 ft 508 kts 296°
2026-05-08 11:33 11.14927 86.64799 35793 ft 507 kts 296°
2026-05-08 11:34 11.18108 86.58390 35794 ft 507 kts 296°
2026-05-08 11:34 11.21292 86.51975 35793 ft 508 kts 296°
2026-05-08 11:35 11.24481 86.45543 35790 ft 509 kts 296°
2026-05-08 11:35 11.27670 86.39104 35789 ft 508 kts 296°
2026-05-08 11:36 11.30833 86.32718 35788 ft 507 kts 296°
2026-05-08 11:36 11.34012 86.26295 35789 ft 508 kts 296°
2026-05-08 11:37 11.37191 86.19863 35787 ft 508 kts 296°
2026-05-08 11:37 11.40374 86.13426 35777 ft 507 kts 296°
2026-05-08 11:38 11.43543 86.07005 35777 ft 506 kts 296°
2026-05-08 11:38 11.46711 86.00583 35775 ft 507 kts 296°
2026-05-08 11:39 11.49862 85.94195 35778 ft 507 kts 296°
2026-05-08 11:39 11.53032 85.87759 35779 ft 507 kts 296°
2026-05-08 11:40 11.56200 85.81327 35775 ft 507 kts 296°
2026-05-08 11:40 11.59367 85.74893 35775 ft 507 kts 296°
2026-05-08 11:41 11.62526 85.68470 35777 ft 507 kts 296°
2026-05-08 11:41 11.65671 85.62070 35779 ft 507 kts 296°
2026-05-08 11:42 11.68833 85.55631 35774 ft 506 kts 296°
2026-05-08 11:42 11.71990 85.49201 35774 ft 507 kts 296°
2026-05-08 11:43 11.75149 85.42761 35779 ft 507 kts 296°
2026-05-08 11:43 11.78305 85.36322 35780 ft 505 kts 296°
2026-05-08 11:44 11.81453 85.29893 35778 ft 505 kts 296°
2026-05-08 11:44 11.84570 85.23527 35775 ft 505 kts 295°
2026-05-08 11:45 11.87717 85.17097 35774 ft 506 kts 295°
2026-05-08 11:45 11.90862 85.10658 35776 ft 505 kts 295°
2026-05-08 11:46 11.94002 85.04229 35783 ft 505 kts 295°
2026-05-08 11:46 11.97118 84.97861 35777 ft 499 kts 295°
2026-05-08 11:47 12.00214 84.91511 35776 ft 500 kts 295°
2026-05-08 11:47 12.03302 84.85157 35777 ft 501 kts 296°
2026-05-08 11:48 12.06416 84.78769 35777 ft 501 kts 296°
2026-05-08 11:48 12.09536 84.72381 35774 ft 501 kts 296°
2026-05-08 11:49 12.12642 84.65995 35779 ft 502 kts 295°
2026-05-08 11:49 12.15743 84.59605 35778 ft 500 kts 295°
2026-05-08 11:50 12.18814 84.53279 35777 ft 499 kts 295°
2026-05-08 11:50 12.21901 84.46918 35775 ft 499 kts 295°
2026-05-08 11:51 12.24996 84.40541 35776 ft 500 kts 295°
2026-05-08 11:51 12.28082 84.34161 35776 ft 500 kts 295°
2026-05-08 11:52 12.31170 84.27787 35773 ft 500 kts 295°
2026-05-08 11:52 12.34248 84.21437 35774 ft 503 kts 295°
2026-05-08 11:53 12.37364 84.15004 35776 ft 503 kts 295°
2026-05-08 11:53 12.40470 84.08569 35778 ft 503 kts 295°
2026-05-08 11:54 12.43568 84.02148 35775 ft 502 kts 295°
2026-05-08 11:54 12.46683 83.95697 35774 ft 503 kts 295°
2026-05-08 11:55 12.49760 83.89316 35771 ft 503 kts 295°
2026-05-08 11:55 12.52854 83.82891 35773 ft 502 kts 295°
2026-05-08 11:56 12.55945 83.76474 35776 ft 501 kts 296°
2026-05-08 11:56 12.59034 83.70071 35775 ft 502 kts 295°
2026-05-08 11:57 12.62119 83.63651 35776 ft 503 kts 295°
2026-05-08 11:57 12.65203 83.57216 35774 ft 502 kts 295°
2026-05-08 11:58 12.68338 83.50824 35779 ft 500 kts 296°
2026-05-08 11:58 12.71504 83.44540 35775 ft 500 kts 296°
2026-05-08 11:59 12.76263 83.35018 35777 ft 500 kts 296°
2026-05-08 11:59 12.79429 83.28664 35775 ft 500 kts 296°
2026-05-08 12:00 12.82602 83.22299 35779 ft 499 kts 296°
2026-05-08 12:00 12.85743 83.15993 35780 ft 499 kts 296°
2026-05-08 12:01 12.88906 83.09631 35780 ft 500 kts 295°
2026-05-08 12:01 12.92060 83.03276 35780 ft 500 kts 296°
2026-05-08 12:02 12.95220 82.96910 35779 ft 499 kts 296°
2026-05-08 12:03 13.01543 82.84170 35779 ft 500 kts 296°
2026-05-08 12:03 13.04625 82.77953 35781 ft 500 kts 295°
2026-05-08 12:04 13.07777 82.71591 35780 ft 499 kts 295°
2026-05-08 12:04 13.10924 82.65231 35782 ft 499 kts 295°
2026-05-08 12:05 13.14070 82.58868 35785 ft 499 kts 295°
2026-05-08 12:05 13.17213 82.52507 35787 ft 499 kts 295°
2026-05-08 12:06 13.20332 82.46191 35785 ft 499 kts 295°
2026-05-08 12:06 13.23478 82.39817 35788 ft 499 kts 295°
2026-05-08 12:07 13.26614 82.33456 35787 ft 498 kts 295°
2026-05-08 12:07 13.29744 82.27103 35787 ft 498 kts 295°
2026-05-08 12:08 13.32876 82.20741 35788 ft 498 kts 295°
2026-05-08 12:08 13.35982 82.14429 35787 ft 498 kts 295°
2026-05-08 12:09 13.39109 82.08069 35788 ft 498 kts 295°
2026-05-08 12:09 13.42230 82.01714 35787 ft 498 kts 295°
2026-05-08 12:10 13.45357 81.95343 35791 ft 498 kts 295°
2026-05-08 12:10 13.48472 81.88990 35790 ft 498 kts 295°
2026-05-08 12:11 13.51590 81.82628 35790 ft 498 kts 295°
2026-05-08 12:11 13.54691 81.76296 35790 ft 498 kts 295°
2026-05-08 12:12 13.57841 81.69857 35793 ft 498 kts 295°
2026-05-08 12:12 13.60915 81.63572 35793 ft 498 kts 295°
2026-05-08 12:13 13.64032 81.57193 35790 ft 499 kts 295°
2026-05-08 12:13 13.67146 81.50814 35793 ft 499 kts 295°
2026-05-08 12:14 13.70260 81.44430 35793 ft 499 kts 295°
2026-05-08 12:14 13.73382 81.38042 35794 ft 499 kts 295°
2026-05-08 12:15 13.76501 81.31661 35796 ft 499 kts 295°
2026-05-08 12:15 13.79618 81.25273 35800 ft 498 kts 295°
2026-05-08 12:16 13.82732 81.18893 35796 ft 498 kts 295°
2026-05-08 12:16 13.85844 81.12513 35796 ft 498 kts 295°
2026-05-08 12:17 13.88954 81.06129 35795 ft 498 kts 295°
2026-05-08 12:17 13.92058 80.99753 35795 ft 498 kts 295°
2026-05-08 12:18 13.95165 80.93366 35799 ft 498 kts 295°
2026-05-08 12:18 13.98274 80.86972 35797 ft 499 kts 295°
2026-05-08 12:19 14.01403 80.80580 35803 ft 499 kts 296°
2026-05-08 12:19 14.04613 80.74238 35805 ft 499 kts 296°
2026-05-08 12:20 14.07825 80.67906 35803 ft 498 kts 295°
2026-05-08 12:20 14.11027 80.61566 35804 ft 498 kts 295°
2026-05-08 12:21 14.14221 80.55231 35807 ft 498 kts 295°
2026-05-08 12:21 14.17423 80.48875 35807 ft 498 kts 295°
2026-05-08 12:22 14.20616 80.42533 35806 ft 498 kts 295°
2026-05-08 12:22 14.23809 80.36185 35807 ft 498 kts 295°
2026-05-08 12:23 14.27003 80.29829 35809 ft 498 kts 295°
2026-05-08 12:23 14.30192 80.23477 35809 ft 498 kts 295°
2026-05-08 12:24 14.33380 80.17123 35809 ft 498 kts 295°
2026-05-08 12:24 14.36582 80.10733 35809 ft 498 kts 295°
2026-05-08 12:25 14.39736 80.04441 35809 ft 495 kts 295°
2026-05-08 12:25 14.42895 79.98129 35809 ft 495 kts 295°
2026-05-08 12:26 14.46056 79.91808 35810 ft 495 kts 295°
2026-05-08 12:26 14.49215 79.85486 35806 ft 495 kts 295°
2026-05-08 12:27 14.51840 79.80229 35808 ft 495 kts 295°
2026-05-08 12:27 14.55015 79.73866 35809 ft 494 kts 295°
2026-05-08 12:28 14.58161 79.67554 35813 ft 494 kts 295°
2026-05-08 12:28 14.61306 79.61241 35812 ft 494 kts 295°
2026-05-08 12:29 14.64450 79.54926 35812 ft 494 kts 295°
2026-05-08 12:29 14.67599 79.48592 35812 ft 494 kts 295°
2026-05-08 12:30 14.70719 79.42313 35815 ft 493 kts 295°
2026-05-08 12:30 14.73839 79.36031 35815 ft 490 kts 295°
2026-05-08 12:31 14.76950 79.29762 35812 ft 490 kts 295°
2026-05-08 12:31 14.80060 79.23491 35812 ft 490 kts 295°
2026-05-08 12:32 14.83169 79.17212 35812 ft 490 kts 295°
2026-05-08 12:32 14.86276 79.10937 35812 ft 490 kts 295°
2026-05-08 12:33 14.89379 79.04663 35816 ft 490 kts 295°
2026-05-08 12:33 14.92480 78.98383 35812 ft 489 kts 295°
2026-05-08 12:34 14.95577 78.92109 35818 ft 489 kts 295°
2026-05-08 12:34 14.98690 78.85799 35817 ft 494 kts 295°
2026-05-08 12:35 15.01831 78.79429 35815 ft 495 kts 295°
2026-05-08 12:35 15.04959 78.73075 35813 ft 495 kts 295°
2026-05-08 12:36 15.08086 78.66716 35819 ft 495 kts 295°
2026-05-08 12:36 15.11208 78.60366 35820 ft 494 kts 295°
2026-05-08 12:37 15.14327 78.54015 35820 ft 494 kts 295°
2026-05-08 12:37 15.17441 78.47668 35821 ft 494 kts 295°
2026-05-08 12:38 15.20556 78.41311 35826 ft 494 kts 295°
2026-05-08 12:38 15.23669 78.34955 35824 ft 494 kts 295°
2026-05-08 12:39 15.26781 78.28596 35823 ft 494 kts 295°
2026-05-08 12:39 15.29891 78.22234 35839 ft 494 kts 295°
2026-05-08 12:40 15.32977 78.15914 35845 ft 494 kts 295°
2026-05-08 12:40 15.36078 78.09562 35851 ft 493 kts 295°
2026-05-08 12:41 15.39142 78.03199 35851 ft 493 kts 294°
2026-05-08 12:41 15.42194 77.96829 35851 ft 493 kts 294°
2026-05-08 12:42 15.45245 77.90454 35844 ft 493 kts 295°
2026-05-08 12:42 15.48301 77.84076 35846 ft 493 kts 295°
2026-05-08 12:43 15.51357 77.77692 35844 ft 493 kts 295°
2026-05-08 12:43 15.54408 77.71313 35843 ft 493 kts 294°
2026-05-08 12:44 15.57459 77.64926 35839 ft 493 kts 294°
2026-05-08 12:44 15.60508 77.58538 35831 ft 493 kts 295°
2026-05-08 12:45 15.63556 77.52144 35831 ft 494 kts 295°
2026-05-08 12:45 15.66596 77.45757 35832 ft 492 kts 295°
2026-05-08 12:46 15.69470 77.39721 35831 ft 493 kts 295°
2026-05-08 12:46 15.72511 77.33339 35834 ft 492 kts 295°
2026-05-08 12:47 15.75565 77.26973 35833 ft 492 kts 295°
2026-05-08 12:47 15.78619 77.20603 35829 ft 493 kts 295°
2026-05-08 12:48 15.81677 77.14213 35828 ft 494 kts 295°
2026-05-08 12:48 15.84738 77.07821 35839 ft 493 kts 295°
2026-05-08 12:49 15.87790 77.01436 35839 ft 493 kts 295°
2026-05-08 12:49 15.90839 76.95046 35839 ft 493 kts 295°
2026-05-08 12:50 15.93888 76.88652 35839 ft 494 kts 295°
2026-05-08 12:50 15.96914 76.82304 35857 ft 491 kts 295°
2026-05-08 12:51 16.01460 76.72753 35856 ft 491 kts 295°
2026-05-08 12:52 16.04490 76.66377 35855 ft 492 kts 295°
2026-05-08 12:52 16.09060 76.56758 35863 ft 491 kts 295°
2026-05-08 12:53 16.12057 76.50432 35864 ft 491 kts 295°
2026-05-08 12:53 16.15082 76.44048 35867 ft 491 kts 295°
2026-05-08 12:54 16.18109 76.37659 35865 ft 491 kts 295°
2026-05-08 12:55 16.24247 76.24674 35869 ft 491 kts 295°
2026-05-08 12:55 16.27260 76.18290 35876 ft 490 kts 295°
2026-05-08 12:56 16.30276 76.11893 35877 ft 490 kts 295°
2026-05-08 12:56 16.33284 76.05510 35882 ft 490 kts 295°
2026-05-08 12:57 16.36288 75.99126 35883 ft 490 kts 295°
2026-05-08 12:57 16.39270 75.92726 35870 ft 490 kts 295°
2026-05-08 12:58 16.42242 75.86325 35881 ft 490 kts 295°
2026-05-08 12:58 16.45216 75.79919 35884 ft 490 kts 295°
2026-05-08 12:59 16.48189 75.73509 35885 ft 491 kts 295°
2026-05-08 12:59 16.51167 75.67088 35887 ft 491 kts 295°
2026-05-08 13:00 16.54140 75.60668 35890 ft 491 kts 295°
2026-05-08 13:00 16.57106 75.54254 35892 ft 489 kts 295°
2026-05-08 13:01 16.60061 75.47863 35890 ft 489 kts 295°
2026-05-08 13:01 16.63182 75.41548 35891 ft 489 kts 297°
2026-05-08 13:02 16.66360 75.35255 35888 ft 489 kts 297°
2026-05-08 13:02 16.69530 75.28967 35887 ft 489 kts 297°
2026-05-08 13:03 16.72697 75.22675 35888 ft 490 kts 297°
2026-05-08 13:03 16.75843 75.16419 35890 ft 489 kts 297°
2026-05-08 13:04 16.79009 75.10115 35890 ft 489 kts 297°
2026-05-08 13:04 16.82165 75.03820 35874 ft 489 kts 297°
2026-05-08 13:05 16.85325 74.97515 35888 ft 488 kts 297°
2026-05-08 13:05 16.87952 74.92271 35887 ft 487 kts 297°
2026-05-08 13:06 16.91095 74.85990 35888 ft 487 kts 297°
2026-05-08 13:06 16.94230 74.79719 35874 ft 487 kts 297°
2026-05-08 13:07 16.97343 74.73486 35882 ft 487 kts 297°
2026-05-08 13:07 17.00478 74.67200 35881 ft 487 kts 297°
2026-05-08 13:08 17.03609 74.60921 35879 ft 487 kts 297°
2026-05-08 13:08 17.06733 74.54646 35877 ft 486 kts 297°
2026-05-08 13:09 17.09861 74.48358 35871 ft 487 kts 297°
2026-05-08 13:09 17.12987 74.42069 35870 ft 487 kts 297°
2026-05-08 13:10 17.16103 74.35793 35865 ft 485 kts 296°
2026-05-08 13:10 17.19215 74.29516 35853 ft 485 kts 297°
2026-05-08 13:11 17.22318 74.23259 35855 ft 485 kts 297°
2026-05-08 13:11 17.25433 74.16977 35861 ft 485 kts 297°
2026-05-08 13:12 17.28543 74.10699 35872 ft 485 kts 297°
2026-05-08 13:12 17.31650 74.04420 35866 ft 485 kts 296°
2026-05-08 13:13 17.34754 73.98138 35877 ft 485 kts 297°
2026-05-08 13:13 17.37854 73.91857 35879 ft 485 kts 297°
2026-05-08 13:14 17.40961 73.85560 35865 ft 484 kts 296°
2026-05-08 13:14 17.44032 73.79332 35870 ft 484 kts 296°
2026-05-08 13:15 17.47139 73.73019 35879 ft 484 kts 296°
2026-05-08 13:15 17.50226 73.66742 35864 ft 484 kts 296°
2026-05-08 13:16 17.53315 73.60452 35864 ft 486 kts 297°
2026-05-08 13:16 17.56412 73.54144 35850 ft 486 kts 296°
2026-05-08 13:17 17.59507 73.47833 35836 ft 487 kts 296°
2026-05-08 13:17 17.62601 73.41517 35836 ft 486 kts 296°
2026-05-08 13:18 17.65695 73.35194 35810 ft 486 kts 296°
2026-05-08 13:18 17.68782 73.28878 35823 ft 486 kts 296°
2026-05-08 13:19 17.71863 73.22567 35795 ft 485 kts 297°
2026-05-08 13:19 17.74920 73.16302 35813 ft 485 kts 297°
2026-05-08 13:20 17.77999 73.09986 35814 ft 485 kts 297°
2026-05-08 13:20 17.81071 73.03675 35786 ft 485 kts 297°
2026-05-08 13:21 17.84141 72.97362 35791 ft 485 kts 297°
2026-05-08 13:21 17.87208 72.91045 35791 ft 485 kts 297°
2026-05-08 13:22 17.90271 72.84733 35806 ft 484 kts 296°
2026-05-08 13:22 17.93327 72.78430 35786 ft 483 kts 296°
2026-05-08 13:23 17.96379 72.72127 35781 ft 483 kts 296°
2026-05-08 13:23 17.99435 72.65809 35800 ft 485 kts 296°
2026-05-08 13:24 18.02491 72.59486 35800 ft 484 kts 296°
2026-05-08 13:24 18.05526 72.53198 35797 ft 481 kts 296°
2026-05-08 13:25 18.08562 72.46902 35778 ft 483 kts 296°
2026-05-08 13:25 18.11605 72.40587 35799 ft 484 kts 296°
2026-05-08 13:26 18.14644 72.34274 35780 ft 483 kts 296°
2026-05-08 13:26 18.17667 72.27986 35793 ft 481 kts 296°
2026-05-08 13:27 18.20696 72.21676 35776 ft 483 kts 296°
2026-05-08 13:27 18.23736 72.15341 35792 ft 484 kts 296°
2026-05-08 13:28 18.26768 72.09019 35790 ft 482 kts 296°
2026-05-08 13:28 18.29783 72.02721 35787 ft 482 kts 296°
2026-05-08 13:29 18.32800 71.96413 35787 ft 483 kts 296°
2026-05-08 13:29 18.35832 71.90067 35797 ft 483 kts 296°
2026-05-08 13:30 18.38854 71.83736 35793 ft 482 kts 296°
2026-05-08 13:30 18.41870 71.77410 35792 ft 484 kts 296°
2026-05-08 13:31 18.44870 71.71114 35811 ft 484 kts 296°
2026-05-08 13:31 18.47890 71.64766 35795 ft 483 kts 296°
2026-05-08 13:32 18.50915 71.58403 35798 ft 482 kts 296°
2026-05-08 13:32 18.53921 71.52071 35814 ft 485 kts 296°
2026-05-08 13:33 18.56942 71.45701 35817 ft 486 kts 296°
2026-05-08 13:33 18.59964 71.39324 35801 ft 485 kts 296°
2026-05-08 13:34 18.62980 71.32954 35816 ft 484 kts 296°
2026-05-08 13:34 18.65989 71.26590 35815 ft 485 kts 296°
2026-05-08 13:35 18.69012 71.20188 35804 ft 487 kts 296°
2026-05-08 13:35 18.72026 71.13800 35811 ft 485 kts 296°
2026-05-08 13:36 18.75028 71.07431 35813 ft 484 kts 296°
2026-05-08 13:36 18.78027 71.01061 35809 ft 484 kts 296°
2026-05-08 13:37 18.81031 70.94671 35813 ft 486 kts 296°
2026-05-08 13:37 18.84032 70.88284 35816 ft 485 kts 296°
2026-05-08 13:38 18.86524 70.82974 35825 ft 485 kts 296°
2026-05-08 13:38 18.90012 70.75534 35814 ft 486 kts 296°
2026-05-08 13:39 18.93039 70.69070 35831 ft 486 kts 296°
2026-05-08 13:39 18.96016 70.62706 35816 ft 486 kts 296°
2026-05-08 13:40 18.99014 70.56290 35825 ft 486 kts 296°
2026-05-08 13:40 19.02009 70.49871 35823 ft 487 kts 296°
2026-05-08 13:41 19.05013 70.43428 35824 ft 488 kts 296°
2026-05-08 13:41 19.08009 70.36993 35826 ft 486 kts 296°
2026-05-08 13:42 19.10999 70.30566 35828 ft 486 kts 296°
2026-05-08 13:42 19.13986 70.24137 35828 ft 487 kts 296°
2026-05-08 13:43 19.16973 70.17701 35834 ft 487 kts 296°
2026-05-08 13:43 19.19961 70.11258 35832 ft 488 kts 296°
2026-05-08 13:44 19.22951 70.04801 35832 ft 488 kts 296°
2026-05-08 13:44 19.25935 69.98351 35833 ft 488 kts 296°
2026-05-08 13:45 19.28919 69.91893 35835 ft 488 kts 296°
2026-05-08 13:45 19.31900 69.85434 35838 ft 488 kts 296°
2026-05-08 13:46 19.34878 69.78971 35840 ft 487 kts 296°
2026-05-08 13:46 19.37861 69.72495 35842 ft 487 kts 296°
2026-05-08 13:47 19.40834 69.66031 35839 ft 487 kts 296°
2026-05-08 13:47 19.43784 69.59611 35839 ft 487 kts 296°
2026-05-08 13:48 19.46747 69.53153 35839 ft 487 kts 296°
2026-05-08 13:48 19.49215 69.47767 35849 ft 488 kts 296°
2026-05-08 13:49 19.52667 69.40227 35839 ft 488 kts 296°
2026-05-08 13:49 19.55643 69.33741 35838 ft 488 kts 297°
2026-05-08 13:50 19.58724 69.27326 35842 ft 488 kts 297°
2026-05-08 13:50 19.61827 69.20916 35840 ft 488 kts 297°
2026-05-08 13:51 19.64921 69.14497 35838 ft 488 kts 297°
2026-05-08 13:51 19.68011 69.08065 35841 ft 489 kts 297°
2026-05-08 13:52 19.70597 69.02674 35840 ft 489 kts 297°
2026-05-08 13:52 19.73681 68.96237 35835 ft 489 kts 297°
2026-05-08 13:53 19.76762 68.89797 35837 ft 489 kts 297°
2026-05-08 13:53 19.79837 68.83360 35848 ft 489 kts 297°
2026-05-08 13:54 19.82915 68.76912 35833 ft 489 kts 297°
2026-05-08 13:54 19.85986 68.70468 35839 ft 488 kts 297°
2026-05-08 13:55 19.89051 68.64036 35837 ft 488 kts 297°
2026-05-08 13:56 19.93620 68.54429 35837 ft 488 kts 297°
2026-05-08 13:56 19.96712 68.47918 35851 ft 488 kts 297°
2026-05-08 13:57 19.99748 68.41515 35835 ft 486 kts 297°
2026-05-08 13:57 20.02803 68.35071 35831 ft 487 kts 297°
2026-05-08 13:58 20.05863 68.28606 35836 ft 489 kts 297°
2026-05-08 13:58 20.08916 68.22146 35851 ft 487 kts 297°
2026-05-08 13:59 20.11952 68.15715 35838 ft 488 kts 297°
2026-05-08 13:59 20.15000 68.09254 35844 ft 488 kts 297°
2026-05-08 14:00 20.18045 68.02789 35840 ft 488 kts 297°
2026-05-08 14:00 20.21083 67.96329 35838 ft 487 kts 297°
2026-05-08 14:01 20.24121 67.89869 35851 ft 488 kts 297°
2026-05-08 14:01 20.27159 67.83403 35841 ft 489 kts 297°
2026-05-08 14:02 20.30190 67.76934 35846 ft 488 kts 297°
2026-05-08 14:02 20.33218 67.70467 35858 ft 487 kts 297°
2026-05-08 14:03 20.36234 67.64022 35849 ft 487 kts 297°
2026-05-08 14:03 20.39260 67.57547 35848 ft 488 kts 297°
2026-05-08 14:04 20.42280 67.51073 35855 ft 488 kts 297°
2026-05-08 14:04 20.45307 67.44576 35850 ft 487 kts 297°
2026-05-08 14:05 20.48325 67.38098 35840 ft 487 kts 297°
2026-05-08 14:05 20.51343 67.31607 35854 ft 488 kts 297°
2026-05-08 14:06 20.52848 67.28367 35839 ft 488 kts 297°